Tracking 27079 objects as of 23-Mar-2023
HD Live streaming from Space Station
objects crossing your sky now

SL-16 DEB

Track SL-16 DEB now!
10-day predictions


NORAD ID: 28356
Int'l Code: 2004-021E
Perigee: 849.2 km
Apogee: 1,171.8 km
Inclination: 71.1 °
Period: 105.2 minutes
Semi major axis: 7381 km
RCS: 0.0834 m2 (small)
Launch date: June 10, 2004
Source: Commonwealth of Independent States (former USSR) (CIS)
Launch site: TYURATAM MISSILE AND SPACE COMPLEX (TTMTR)

Note: This is SATELLITE DEBRIS
Your satellite tracking list
Your tracking list is empty




NASA's NSSDC Master Catalog

Two Line Element Set (TLE):
1 28356U 04021E   23081.87717127  .00000230  00000-0  26532-3 0  9991
2 28356  71.0655 353.9455 0218540  85.5629 342.6569 13.68942544937818
Source of the keplerian elements: AFSPC